AirNav   Phillips 66 Aviation Fuel
 
 1019 users online  

TA19 Post Oak Airfield
Weatherford, Texas, USA

GOING TO WEATHERFORD?


FAA INFORMATION EFFECTIVE 01 FEBRUARY 2018

Location

FAA Identifier: TA19
Lat/Long: 32-40-28.4720N / 097-47-01.1110W
32-40.474533N / 097-47.018517W
32.6745756 / -97.7836419
(estimated)
Elevation: 1020 ft. / 311 m (estimated)
Variation: 07E (1985)
From city: 5 miles S of WEATHERFORD, TX
Time zone: UTC -6 (UTC -5 during Daylight Saving Time)
Zip code: 76087

Airport Operations

Airport use: Private use. Permission required prior to landing
Activation date: 11/1988
Control tower: no
ARTCC: FORT WORTH CENTER
FSS: FORT WORTH FLIGHT SERVICE STATION
Attendance: IREG
Wind indicator: yes
Segmented circle: yes

Airport Communications

WX AWOS-3 at GDJ (14 nm S): 118.925 (817-573-7514)
WX ASOS at MWL (15 nm NW): 135.075 (940-325-2457)

Nearby radio navigation aids

VOR radial/distance  VOR name  Freq  Var
MQPr097/11.2MILLSAP VORTAC117.7009E
JENr003/31.3GLEN ROSE VORTAC115.0006E
FUZr241/33.1RANGER VORTAC115.7006E
TTTr247/39.3MAVERICK VOR/DME113.1006E

Airport Services

Runway Information

Runway 18/36

Dimensions: 2350 x 30 ft. / 716 x 9 m
Surface: gravel, in fair condition
HAS SOFT SPOTS WHEN WET.
Runway edge markings: 18/36 HAS WHITE REFLECTORS WITH WHITE ACFT TIRES ALONG BOTH SIDES WITH A SINGLE RED ON EITHER SIDE AT RY 18 & A SINGLE BLUE ON EITHER SIDE AT RY 36.
Operational restrictions: UPSLOPE SOUTH 1/2 OF RY 18.
RUNWAY 18  RUNWAY 36
Traffic pattern: leftright
Obstructions: 15 ft. trees, 50 ft. right of centerline4 ft. brush, 50 ft. left of centerline

Airport Ownership and Management from official FAA records

Ownership: Privately-owned
Owner: JOHN G. GOOD
1501A LOWER TARRANT
GRAND PRAIRIE, TX 75050
Phone 214-606-0378
WORK PHONE AT FT WORTH POLICE HELICOPTERS 817-870-8311.
Manager: JOHN G. GOOD
1501 A LOWER TARRANT
WEATHERFORD, TX 76087
Phone 214-606-0378

Airport Operational Statistics

Aircraft based on the field: 1
Single engine airplanes: 1
    
Aircraft operations: 150/year *
67% local general aviation
33% transient general aviation
* for 12-month period ending 08 February 1995

Instrument Procedures

There are no published instrument procedures at TA19.

Some nearby airports with instrument procedures:

KWEA - Parker County Airport (7 nm NE)
50F - Bourland Field Airport (11 nm SE)
KGDJ - Granbury Regional Airport (14 nm S)
KMWL - Mineral Wells Airport (15 nm NW)
KNFW - Fort Worth Naval Air Station JRB (Carswell Field) Airport (18 nm E)
 
Loc | Ops | Rwys | IFR | FBO | Links
Com | Nav | Svcs | Stats | Notes

AirNav Hotels Sweepstakes
 
Area around TA19 (Post Oak Airfield)
 
Road maps at: MapQuest Bing Google
 
Aerial photo
No photo
 
Sectional chart

 
Airport distance calculator
Flying to Post Oak Airfield? Find the distance to fly.

From to TA19

Sunrise and sunset
Times for 18-Feb-2018
 Local
(UTC-6)
 Zulu
(UTC)
Morning civil twilight06:4712:47
Sunrise07:1213:12
Sunset18:1800:18
Evening civil twilight18:4300:43

Current date and time
Zulu (UTC)  19-Feb-2018 02:25:21
Local (UTC-6)  18-Feb-2018 20:25:21
 
METAR
KGDJ 
14nm S 
AWOS-3 118.925 817-573-7514
190155Z AUTO 17007KT 7SM CLR 17/15 A2990 RMK AO2 T01690153
KMWL 
16nm NW 
190153Z AUTO 16016G23KT 10SM BKN013 17/15 A2986 RMK AO2 SLP107 T01670150
KNFW 
18nm E 
190152Z AUTO 18010KT 6SM BR OVC004 16/14 A2989 RMK AO2 SLP105 T01610144 $
KFTW 
23nm NE 
190153Z 19015KT 4SM BR OVC004 17/16 A2988 RMK AO2 SLP117 T01670161
KFWS 
25nm E 
190155Z AUTO 19007KT 3SM BR OVC004 16/15 A2991 RMK AO2 T01600152
KCPT 
26nm SE 
190155Z AUTO 16006KT M1/4SM FG OVC002 14/14 A2992 RMK AO2 VIS M1/4V5
TAF
KNFW 
18nm E 
1823/1923 18014KT 9000 -SHRA OVC010 QNH2986INS FM190100 18015G20KT 6000 -DZ BR OVC012 QNH2985INS FM191000 18016G22KT 9999 OVC007 QNH2980INS FM191500 17017G23KT 9999 VCTS SCT010 BKN020CB OVC050 QNH2982INS TEMPO 1916/1922 VRB20G35KT 1600 TSRA BKN005 OVC015CB AUTOMATED SENSOR METWATCH 1823 TIL 1811Z T18/1910Z T23/1921Z FN00170
NOTAMs
Click for the latest NOTAMs
NOTAMs are issued by the DoD/FAA and will open in a separate window not controlled by AirNav.

 

 
 

Would you like to see your business listed on this page?

 If your business provides an interesting product or service to pilots, flight crews, aircraft, or users of the Post Oak Airfield, you should consider listing it here.  To start the listing process, click on the button below
 
Add a business
 

Other Pages about Post Oak Airfield

Update a link
 
Copyright © AirNav, LLC. All rights reserved. Privacy Policy  Contact